Location: Newark
(25.4800°N, 85.7200°E)
Time: 06:32:00
(UTC+00:00)

Altair - Visible Passes

Search period start: 25 August 2019 00:00
Search period end: 04 September 2019 00:00
Orbit: 1501 x 1683 km, 47.2° (Epoch: 24 August)

Date Brightness Start Highest point End Pass type
(mag) Time Alt. Az. Time Alt. Az. Time Alt. Az.
25 Aug 8.3 19:48:39 44° NNE 19:48:39 44° NNE 19:54:52 10° NE visible
25 Aug 8.9 21:46:40 18° WNW 21:51:28 26° NNW 21:59:04 10° NNE visible
26 Aug 8.6 19:24:43 36° NE 19:24:43 36° NE 19:29:44 10° NE visible
26 Aug 8.8 21:22:43 23° NW 21:26:05 27° NNW 21:33:55 10° NNE visible
26 Aug 9.3 23:27:53 10° NW 23:34:15 19° N 23:40:28 10° NE visible
27 Aug 8.9 19:00:44 28° NE 19:00:44 28° NE 19:04:35 10° NE visible
27 Aug 8.7 20:58:44 27° NW 21:00:42 29° NNW 21:08:46 10° NNE visible
27 Aug 9.3 23:02:27 10° NW 23:08:48 19° N 23:15:01 10° NE visible
28 Aug 9.2 18:36:45 22° NE 18:36:45 22° NE 18:39:25 10° NE visible
28 Aug 8.6 20:34:45 30° NNW 20:35:21 31° NNW 20:43:38 10° NNE visible
28 Aug 9.3 22:36:58 10° NW 22:43:21 19° N 22:49:36 10° NE visible
29 Aug 9.4 18:12:44 16° NE 18:12:44 16° NE 18:14:14 10° NE visible
29 Aug 8.6 20:10:44 32° NNW 20:10:44 32° NNW 20:18:30 10° NE visible
29 Aug 9.3 22:11:27 10° NW 22:17:54 19° N 22:24:12 10° NE visible
30 Aug 9.6 17:48:43 11° NE 17:48:43 11° NE 17:49:02 10° NE visible
30 Aug 8.7 19:46:43 32° N 19:46:43 32° N 19:53:22 10° NE visible
30 Aug 9.3 21:45:55 10° NW 21:52:26 19° N 21:58:49 10° NE visible
31 Aug 8.8 19:22:41 30° N 19:22:41 30° N 19:28:14 10° NE visible
31 Aug 9.3 21:20:41 11° NW 21:26:59 19° N 21:33:28 10° NE visible
31 Aug 9.2 23:27:29 10° NNW 23:35:12 26° NNE 23:42:42 10° ENE visible
01 Sep 9.0 18:58:38 27° NNE 18:58:38 27° NNE 19:03:06 10° NE visible
01 Sep 9.3 20:56:38 14° NW 21:01:31 20° N 21:08:09 10° NE visible
01 Sep 9.2 23:02:15 10° NNW 23:09:49 25° NNE 23:17:10 10° ENE visible
02 Sep 9.2 18:34:35 23° NNE 18:34:35 23° NNE 18:37:58 10° NE visible
02 Sep 9.2 20:32:34 17° NW 20:36:04 21° N 20:42:51 10° NE visible
02 Sep 9.3 22:37:00 10° NNW 22:44:26 24° NNE 22:51:38 10° ENE visible
03 Sep 9.4 18:10:32 19° NNE 18:10:32 19° NNE 18:12:51 10° NE visible
03 Sep 9.2 20:08:32 20° NNW 20:10:37 21° NNW 20:17:35 10° NE visible
03 Sep 9.3 22:11:44 10° NNW 22:19:02 23° NNE 22:26:06 10° ENE visible
